Flag for U.S.A. Weather past 2 weeks in Visalia, California, U.S.A.

Now
61 °F

Sunny.


Feels Like: 61 °F
Forecast: 40 / 62 °F
Wind: No wind

Location: Visalia Municipal

Current Time: Feb 1, 2015 at 12:05:48 PM

Latest Report: Feb 1, 2015 at 11:35 AM


Visibility: 4 mi

Pressure: 30.18 "Hg

Humidity: 63%

Dew point: 48 °F

Location of VisaliaLocation

Historic Weather in Visalia — Graph

°F

Visalia temperature yesterday

Maximum temperature yesterday: 63 °F (at 12:15 PM)
Minimum temperature yesterday: 39 °F (at 6:15 AM)
Average temperature yesterday: 50 °F

Past Weeks' High & Low Weather Summary

 TemperatureHumidityPressure
High66 °F (Jan 27, 3:15 PM)94% (Jan 29, 1:15 PM)30.41 "Hg (Jan 29, 1:15 PM)
Low36 °F (Jan 23, 2:15 AM)59% (Jan 31, 3:55 PM)29.88 "Hg (Jan 31, 3:15 AM)
Average47 °F80%30.18 "Hg
* Reported Jan 17 10:15 AM — Feb 1 10:55 AM, Visalia, Weather by CustomWeather, © 2014

Note: Actual official high and low records may vary slightly from our data, if they occured in-between our weather recording intervals... More about our weather records

Advertising

Visalia weather history for previous 24 hours

 ConditionsComfort  
Time TempWeatherWind HumidityBarometerVisibility
10:55 AM
Feb 1
59 °FSunny.No wind68%30.19 "Hg3 mi
10:35 AM57 °FSunny.3 mph72%30.20 "Hg3 mi
10:15 AM55 °FSunny.No wind77%30.19 "Hg2 mi
9:55 AM54 °FSunny.No wind77%30.19 "Hg2 mi
9:35 AM52 °FSunny.No wind82%30.19 "Hg2 mi
9:15 AM50 °FSunny.No wind82%30.18 "Hg2 mi
8:55 AM48 °FSunny.No wind87%30.18 "Hg2 mi
8:35 AM46 °FSunny.No wind82%30.17 "Hg2 mi
8:15 AM45 °FSunny.No wind81%30.17 "Hg1 mi
7:55 AM41 °FDense fog.No wind87%30.16 "Hg1 mi
7:35 AM39 °FDense fog.3 mph87%30.16 "Hg1 mi
7:15 AM39 °FSunny.3 mph81%30.15 "Hg1 mi
6:55 AM39 °FDense fog.5 mph87%30.14 "Hg1 mi
6:35 AM41 °FDense fog.No wind81%30.14 "Hg1 mi
6:15 AM41 °FClear.No wind81%30.12 "Hg1 mi
5:55 AM41 °FClear.3 mph81%30.12 "Hg1 mi
5:35 AM41 °FDense fog.5 mph81%30.12 "Hg1 mi
5:15 AM43 °FDense fog.5 mph76%30.11 "Hg1 mi
4:55 AM43 °FDense fog.3 mph76%30.11 "Hg1 mi
4:35 AM41 °FClear.3 mph81%30.11 "Hg2 mi
4:15 AM41 °FClear.No wind81%30.11 "Hg1 mi
3:55 AM41 °FPassing clouds.No wind81%30.11 "Hg1 mi
3:35 AM43 °FLow clouds.5 mph76%30.10 "Hg0 mi
3:15 AM41 °FLow clouds.3 mph81%30.11 "Hg0 mi
2:55 AM39 °FLow clouds.No wind81%30.11 "Hg0 mi
2:35 AM41 °FLow clouds.No wind76%30.10 "Hg0 mi
2:15 AM43 °FLow clouds.No wind81%30.10 "Hg0 mi
1:55 AM41 °FLow clouds.No wind81%30.10 "Hg0 mi
1:35 AM43 °FLow clouds.No wind81%30.10 "Hg0 mi
1:15 AM43 °FDense fog.No wind81%30.10 "Hg0 mi
12:55 AM45 °FClear.3 mph81%30.09 "Hg1 mi
12:35 AM45 °FClear.6 mph81%30.09 "Hg1 mi
12:15 AM48 °FClear.3 mph82%30.09 "Hg2 mi
11:55 PM
Jan 31
48 °FClear.3 mph82%30.09 "Hg2 mi
11:35 PM48 °FClear.3 mph82%30.09 "Hg2 mi
11:15 PM48 °FClear.5 mph76%30.08 "Hg2 mi
10:55 PM48 °FClear.5 mph82%30.07 "Hg2 mi
10:35 PM48 °FClear.5 mph82%30.07 "Hg2 mi
10:15 PM48 °FClear.7 mph76%30.07 "Hg2 mi
9:55 PM48 °FClear.5 mph76%30.06 "Hg2 mi
9:35 PM48 °FClear.3 mph82%30.05 "Hg3 mi
9:15 PM48 °FClear.3 mph76%30.05 "Hg3 mi
8:55 PM48 °FClear.3 mph82%30.05 "Hg3 mi
8:35 PM48 °FClear.No wind76%30.04 "Hg3 mi
8:15 PM48 °FClear.3 mph76%30.04 "Hg3 mi
7:55 PM52 °FClear.No wind72%30.04 "Hg4 mi
7:15 PM48 °FClear.No wind71%30.04 "Hg4 mi
6:55 PM54 °FClear.5 mph67%30.03 "Hg5 mi
6:35 PM54 °FClear.No wind72%30.03 "Hg5 mi
6:15 PM55 °FClear.No wind67%30.03 "Hg5 mi
5:55 PM55 °FClear.No wind67%30.02 "Hg5 mi
5:35 PM57 °FClear.No wind67%30.02 "Hg5 mi
5:15 PM59 °FSunny.No wind63%30.01 "Hg5 mi
4:55 PM59 °FSunny.5 mph63%30.01 "Hg5 mi
4:35 PM61 °FSunny.5 mph63%30.01 "Hg5 mi
4:15 PM61 °FSunny.8 mph63%30.00 "Hg5 mi
3:55 PM63 °FSunny.9 mph59%29.99 "Hg5 mi
3:35 PM63 °FSunny.8 mph64%29.99 "Hg5 mi
3:15 PM63 °FPassing clouds.7 mph68%29.99 "Hg4 mi
2:55 PM63 °FSunny.5 mph68%29.99 "Hg4 mi
2:35 PM63 °FPassing clouds.3 mph64%29.99 "Hg4 mi
2:15 PM63 °FPassing clouds.5 mph64%29.99 "Hg4 mi
1:55 PM63 °FPassing clouds.5 mph64%29.98 "Hg5 mi
1:35 PM63 °FPassing clouds.5 mph64%29.97 "Hg5 mi
1:15 PM61 °FSunny.No wind68%29.99 "Hg4 mi
12:35 PM61 °FSunny.6 mph68%30.00 "Hg2 mi
12:15 PM63 °FSunny.No wind68%30.01 "Hg3 mi
Weather by CustomWeather, © 2014

See weather overviewHow to use our weather pages